timestamp,wind_dir_avg,wind_spd_avg,wind_spd_max_dir,wind_spd_gust,battery_voltage,lat,long
2023-06-15 00:04:00+00:00,210.0,6.18,209.0,6.64,13.05,47.59359,-54.27349
2023-06-15 00:14:00+00:00,209.0,5.67,206.0,6.25,12.49,47.59359,-54.27349
2023-06-15 00:24:00+00:00,203.0,6.19,206.0,7.08,12.49,47.59359,-54.27349
2023-06-15 00:34:00+00:00,210.0,6.0,213.0,6.66,12.49,47.59359,-54.27349
2023-06-15 00:44:00+00:00,216.0,6.47,214.0,7.2,12.49,47.59359,-54.27349
2023-06-15 00:54:00+00:00,216.0,7.27,217.0,8.21,12.49,47.59359,-54.27349
2023-06-15 01:04:00+00:00,219.0,5.95,219.0,6.43,12.49,47.59359,-54.27349
2023-06-15 01:14:00+00:00,220.0,5.25,229.0,6.17,12.41,47.59359,-54.27349
2023-06-15 01:24:00+00:00,223.0,4.99,217.0,5.66,12.41,47.59359,-54.27349
2023-06-15 01:34:00+00:00,217.0,4.23,220.0,4.63,12.41,47.59359,-54.27349
2023-06-15 01:44:00+00:00,213.0,4.5,214.0,4.98,12.41,47.59359,-54.27349
2023-06-15 01:54:00+00:00,208.0,6.04,208.0,6.58,12.41,47.59359,-54.27349
2023-06-15 02:04:00+00:00,207.0,5.2,206.0,5.87,12.41,47.59359,-54.27349
2023-06-15 02:14:00+00:00,208.0,5.56,212.0,6.24,12.41,47.59359,-54.27349
2023-06-15 02:24:00+00:00,198.0,4.99,200.0,5.71,12.41,47.59359,-54.27349
2023-06-15 02:34:00+00:00,197.0,5.13,203.0,5.85,12.41,47.59359,-54.27349
2023-06-15 02:44:00+00:00,190.0,4.62,192.0,5.11,12.41,47.59359,-54.27349
2023-06-15 02:54:00+00:00,193.0,4.45,194.0,4.79,12.41,47.59359,-54.27349
2023-06-15 03:04:00+00:00,193.0,3.98,194.0,4.49,12.41,47.59359,-54.27349
2023-06-15 03:14:00+00:00,198.0,4.18,200.0,4.7,12.33,47.59359,-54.27349
2023-06-15 03:24:00+00:00,205.0,4.71,207.0,5.11,12.33,47.59359,-54.27349
2023-06-15 03:34:00+00:00,204.0,3.8,209.0,4.32,12.33,47.59359,-54.27349
2023-06-15 03:44:00+00:00,209.0,4.85,212.0,5.48,12.33,47.59359,-54.27349
2023-06-15 03:54:00+00:00,209.0,5.31,215.0,5.78,12.33,47.59359,-54.27349
2023-06-15 04:04:00+00:00,208.0,5.12,211.0,5.37,12.33,47.59359,-54.27349
2023-06-15 04:14:00+00:00,216.0,5.1,218.0,5.71,12.33,47.59359,-54.27349
2023-06-15 04:24:00+00:00,217.0,5.8,219.0,6.13,12.33,47.59359,-54.27349
2023-06-15 04:34:00+00:00,211.0,5.92,211.0,6.4,12.33,47.59359,-54.27349
2023-06-15 04:44:00+00:00,215.0,5.52,217.0,6.25,12.33,47.59359,-54.27349
2023-06-15 04:54:00+00:00,218.0,6.21,220.0,7.04,12.33,47.59359,-54.27349
2023-06-15 05:04:00+00:00,215.0,4.8,215.0,5.5,12.33,47.59359,-54.27349
2023-06-15 05:14:00+00:00,208.0,5.33,215.0,6.13,12.33,47.59359,-54.27349
2023-06-15 05:24:00+00:00,212.0,4.27,218.0,4.96,12.33,47.59359,-54.27349
2023-06-15 05:34:00+00:00,215.0,5.07,217.0,5.54,12.33,47.59359,-54.27349
2023-06-15 05:44:00+00:00,218.0,5.77,223.0,6.64,12.33,47.59359,-54.27349
2023-06-15 05:54:00+00:00,217.0,4.26,216.0,4.8,12.33,47.59359,-54.27349
2023-06-15 06:04:00+00:00,220.0,5.27,224.0,6.09,12.33,47.59359,-54.27349
2023-06-15 06:14:00+00:00,225.0,4.63,228.0,5.34,12.25,47.59359,-54.27349
2023-06-15 06:24:00+00:00,218.0,4.73,222.0,5.06,12.25,47.59359,-54.27349
2023-06-15 06:34:00+00:00,232.0,3.17,234.0,3.74,12.25,47.59359,-54.27349
2023-06-15 06:44:00+00:00,232.0,2.46,238.0,2.84,12.25,47.59359,-54.27349
2023-06-15 06:54:00+00:00,234.0,2.45,236.0,2.75,12.25,47.59359,-54.27349
2023-06-15 07:04:00+00:00,240.0,2.99,244.0,3.41,12.25,47.59359,-54.27349
2023-06-15 07:14:01+00:00,243.0,3.26,240.0,3.73,12.25,47.59359,-54.27349
2023-06-15 07:24:01+00:00,240.0,5.02,242.0,5.81,12.25,47.59359,-54.27349
2023-06-15 07:34:01+00:00,241.0,5.83,240.0,6.38,12.25,47.59359,-54.27349
2023-06-15 07:44:01+00:00,242.0,5.29,243.0,5.9,12.25,47.59359,-54.27349
2023-06-15 07:54:01+00:00,235.0,4.65,234.0,5.11,12.25,47.59359,-54.27349
2023-06-15 08:04:01+00:00,227.0,4.43,226.0,4.91,12.25,47.59359,-54.27349
2023-06-15 08:14:00+00:00,221.0,3.92,217.0,4.43,12.17,47.59359,-54.27349
2023-06-15 08:24:00+00:00,214.0,3.5,217.0,3.83,12.17,47.59359,-54.27349
2023-06-15 08:34:00+00:00,235.0,2.23,240.0,2.89,12.17,47.59359,-54.27349
2023-06-15 08:44:00+00:00,221.0,2.93,225.0,3.52,12.17,47.59359,-54.27349
2023-06-15 08:54:00+00:00,228.0,2.01,239.0,2.5,12.17,47.59359,-54.27349
2023-06-15 09:04:00+00:00,216.0,2.39,220.0,2.83,12.17,47.59359,-54.27349
2023-06-15 09:14:00+00:00,216.0,1.68,228.0,2.15,12.17,47.59359,-54.27349
2023-06-15 09:24:00+00:00,190.0,1.91,191.0,2.03,12.17,47.59359,-54.27349
2023-06-15 09:34:00+00:00,169.0,1.83,172.0,1.98,12.17,47.59359,-54.27349
2023-06-15 09:44:00+00:00,165.0,2.74,168.0,2.97,12.17,47.59359,-54.27349
2023-06-15 09:54:00+00:00,189.0,3.9,190.0,4.12,12.17,47.59359,-54.27349
2023-06-15 10:04:00+00:00,170.0,2.1,168.0,2.29,12.17,47.59359,-54.27349
2023-06-15 10:14:00+00:00,178.0,2.16,181.0,2.31,12.57,47.59359,-54.27349
2023-06-15 10:24:00+00:00,197.0,2.26,199.0,2.36,12.57,47.59359,-54.27349
2023-06-15 10:34:00+00:00,166.0,1.33,167.0,1.44,12.57,47.59359,-54.27349
2023-06-15 10:44:00+00:00,219.0,0.86,222.0,1.16,12.57,47.59359,-54.27349
2023-06-15 10:54:00+00:00,219.0,0.79,220.0,0.91,12.57,47.59359,-54.27349
2023-06-15 11:04:00+00:00,186.0,0.78,188.0,0.9,12.57,47.59359,-54.27349
2023-06-15 11:14:01+00:00,239.0,0.67,249.0,0.83,13.6,47.59359,-54.27349
2023-06-15 11:24:01+00:00,173.0,0.33,177.0,0.37,13.6,47.59359,-54.27349
2023-06-15 11:34:01+00:00,265.0,0.83,268.0,0.91,13.6,47.59359,-54.27349
2023-06-15 11:44:01+00:00,59.0,1.39,59.0,1.69,13.6,47.59359,-54.27349
2023-06-15 11:54:01+00:00,55.0,0.23,29.0,0.44,13.6,47.59359,-54.27349
2023-06-15 12:04:01+00:00,29.0,1.69,29.0,1.76,13.6,47.59359,-54.27349
2023-06-15 12:14:01+00:00,38.0,1.91,40.0,2.04,14.24,47.59359,-54.27349
2023-06-15 12:24:01+00:00,16.0,1.76,13.0,1.94,14.24,47.59359,-54.27349
2023-06-15 12:34:01+00:00,41.0,1.59,41.0,1.85,14.24,47.59359,-54.27349
2023-06-15 12:44:01+00:00,6.0,0.95,8.0,1.26,14.24,47.59359,-54.27349
2023-06-15 12:54:01+00:00,0.0,0.83,5.0,1.22,14.24,47.59359,-54.27349
2023-06-15 13:04:01+00:00,321.0,1.11,321.0,1.34,14.24,47.59359,-54.27349
2023-06-15 13:14:01+00:00,322.0,0.82,322.0,1.01,13.76,47.59359,-54.27349
2023-06-15 13:24:01+00:00,291.0,0.89,291.0,1.11,13.76,47.59359,-54.27349
2023-06-15 13:34:01+00:00,14.0,0.62,15.0,0.91,13.76,47.59359,-54.27349
2023-06-15 13:44:01+00:00,17.0,0.63,11.0,0.82,13.76,47.59359,-54.27349
2023-06-15 13:54:01+00:00,34.0,0.12,39.0,0.19,13.76,47.59359,-54.27349
2023-06-15 14:04:01+00:00,84.0,0.62,78.0,0.85,13.76,47.59359,-54.27349
2023-06-15 14:14:00+00:00,26.0,0.24,92.0,0.6,14.24,47.59359,-54.27349
2023-06-15 14:24:00+00:00,180.0,0.34,185.0,0.64,14.24,47.59359,-54.27349
2023-06-15 14:34:00+00:00,239.0,0.49,238.0,0.72,14.24,47.59359,-54.27349
2023-06-15 14:44:00+00:00,23.0,0.99,25.0,1.3,14.24,47.59359,-54.27349
2023-06-15 14:54:00+00:00,292.0,0.96,296.0,1.48,14.24,47.59359,-54.27349
2023-06-15 15:04:00+00:00,234.0,1.7,235.0,2.56,14.24,47.59359,-54.27349
2023-06-15 15:14:00+00:00,222.0,1.41,239.0,1.73,13.53,47.59359,-54.27349
2023-06-15 15:24:00+00:00,233.0,1.65,231.0,1.87,13.53,47.59359,-54.27349
2023-06-15 15:34:00+00:00,228.0,1.21,235.0,1.5,13.53,47.59359,-54.27349
2023-06-15 15:44:00+00:00,220.0,3.67,221.0,4.15,13.53,47.59359,-54.27349
2023-06-15 15:54:00+00:00,215.0,5.15,217.0,5.8,13.53,47.59359,-54.27349
2023-06-15 16:04:00+00:00,226.0,5.18,226.0,5.57,13.53,47.59359,-54.27349
2023-06-15 16:14:00+00:00,220.0,5.76,223.0,6.86,14.32,47.59359,-54.27349
2023-06-15 16:24:00+00:00,221.0,5.33,227.0,6.21,14.32,47.59359,-54.27349
2023-06-15 16:34:00+00:00,233.0,4.93,228.0,6.53,14.32,47.59359,-54.27349
2023-06-15 16:44:00+00:00,220.0,5.96,222.0,7.0,14.32,47.59359,-54.27349
2023-06-15 16:54:00+00:00,216.0,5.89,217.0,6.64,14.32,47.59359,-54.27349
2023-06-15 17:04:00+00:00,220.0,5.89,223.0,6.4,14.32,47.59359,-54.27349
2023-06-15 17:14:00+00:00,211.0,4.5,210.0,5.04,13.68,47.59359,-54.27349
2023-06-15 17:24:00+00:00,191.0,4.47,197.0,5.1,13.68,47.59359,-54.27349
2023-06-15 17:34:00+00:00,205.0,5.0,200.0,6.83,13.68,47.59359,-54.27349
2023-06-15 17:44:00+00:00,216.0,6.07,216.0,6.82,13.68,47.59359,-54.27349
2023-06-15 17:54:00+00:00,222.0,6.37,217.0,7.13,13.68,47.59359,-54.27349
2023-06-15 18:04:00+00:00,228.0,7.38,227.0,8.29,13.68,47.59359,-54.27349
2023-06-15 18:14:00+00:00,228.0,5.4,226.0,6.33,13.68,47.59359,-54.27349
2023-06-15 18:24:00+00:00,224.0,7.14,227.0,7.88,13.68,47.59359,-54.27349
2023-06-15 18:34:00+00:00,218.0,7.02,217.0,7.6,13.68,47.59359,-54.27349
2023-06-15 18:44:00+00:00,218.0,7.43,218.0,8.59,13.68,47.59359,-54.27349
2023-06-15 18:54:00+00:00,225.0,6.24,227.0,7.19,13.68,47.59359,-54.27349
2023-06-15 19:04:00+00:00,222.0,7.37,225.0,8.37,13.68,47.59359,-54.27349
2023-06-15 19:14:00+00:00,225.0,6.77,235.0,8.47,13.68,47.59359,-54.27349
2023-06-15 19:24:00+00:00,217.0,8.07,217.0,9.3,13.68,47.59359,-54.27349
2023-06-15 19:34:00+00:00,224.0,8.58,231.0,9.55,13.68,47.59359,-54.27349
2023-06-15 19:44:00+00:00,224.0,7.47,227.0,8.45,13.68,47.59359,-54.27349
2023-06-15 19:54:00+00:00,220.0,6.58,219.0,7.37,13.68,47.59359,-54.27349
2023-06-15 20:04:00+00:00,220.0,6.22,221.0,7.5,13.68,47.59359,-54.27349
2023-06-15 20:14:00+00:00,219.0,5.85,224.0,7.0,13.53,47.59359,-54.27349
2023-06-15 20:24:00+00:00,216.0,4.84,218.0,5.42,13.53,47.59359,-54.27349
2023-06-15 20:34:00+00:00,217.0,3.42,221.0,4.4,13.53,47.59359,-54.27349
2023-06-15 20:44:00+00:00,217.0,5.95,218.0,6.52,13.53,47.59359,-54.27349
2023-06-15 20:54:00+00:00,220.0,5.36,220.0,6.05,13.53,47.59359,-54.27349
2023-06-15 21:04:00+00:00,221.0,4.67,220.0,5.26,13.53,47.59359,-54.27349
2023-06-15 21:14:00+00:00,228.0,3.28,239.0,4.57,13.37,47.59359,-54.27349
2023-06-15 21:24:00+00:00,223.0,3.73,226.0,4.09,13.37,47.59359,-54.27349
2023-06-15 21:34:00+00:00,216.0,4.15,216.0,4.45,13.37,47.59359,-54.27349
2023-06-15 21:44:00+00:00,213.0,2.97,216.0,3.28,13.37,47.59359,-54.27349
2023-06-15 21:54:00+00:00,208.0,2.38,214.0,2.68,13.37,47.59359,-54.27349
2023-06-15 22:04:00+00:00,180.0,1.8,177.0,1.96,13.37,47.59359,-54.27349
2023-06-15 22:14:00+00:00,182.0,2.84,182.0,3.01,12.97,47.59359,-54.27349
2023-06-15 22:24:00+00:00,183.0,2.86,183.0,3.01,12.97,47.59359,-54.27349
2023-06-15 22:34:00+00:00,177.0,2.86,178.0,2.97,12.97,47.59359,-54.27349
2023-06-15 22:44:00+00:00,191.0,2.77,193.0,2.91,12.97,47.59359,-54.27349
2023-06-15 22:54:00+00:00,193.0,3.27,193.0,3.51,12.97,47.59359,-54.27349
2023-06-15 23:04:00+00:00,191.0,3.05,191.0,3.19,12.97,47.59359,-54.27349
2023-06-15 23:14:00+00:00,186.0,2.22,181.0,2.71,12.49,47.59359,-54.27349
2023-06-15 23:24:00+00:00,153.0,1.53,152.0,1.86,12.49,47.59359,-54.27349
2023-06-15 23:34:00+00:00,154.0,1.37,160.0,1.59,12.49,47.59359,-54.27349
2023-06-15 23:44:00+00:00,155.0,1.38,150.0,1.62,12.49,47.59359,-54.27349
2023-06-15 23:54:00+00:00,168.0,1.16,172.0,1.22,12.49,47.59359,-54.27349
